| time (UTC) | temp F | wind direction | speed knots | gust knots | rain 1hr in | rain 24hr in | rain mn in | humidity % | barometer mb |
| 20260510144052 | 59 | 177 | 0.9 | 1.7 | 0.00 | 0.00 | 0.00 | 87 | 1014.0 |
| 20260510143553 | 58 | 221 | 0.9 | 1.7 | 0.00 | 0.00 | 0.00 | 87 | 1014.0 |
| 20260510143053 | 58 | 183 | 0.0 | 0.9 | 0.00 | 0.00 | 0.00 | 88 | 1014.0 |
| 20260510142552 | 57 | 181 | 0.0 | 0.9 | 0.00 | 0.00 | 0.00 | 88 | 1014.0 |
| 20260510142052 | 57 | 0 | 0.0 | 0.0 | 0.00 | 0.00 | 0.00 | 90 | 1014.0 |
| 20260510141553 | 56 | 247 | 0.9 | 1.7 | 0.00 | 0.00 | 0.00 | 90 | 1014.0 |
| 20260510141053 | 56 | 304 | 0.0 | 0.9 | 0.00 | 0.00 | 0.00 | 91 | 1014.0 |
| 20260510140553 | 56 | 254 | 0.0 | 0.9 | 0.00 | 0.00 | 0.00 | 91 | 1014.0 |
| 20260510140053 | 55 | 223 | 0.0 | 0.0 | 0.00 | 0.00 | 0.00 | 92 | 1014.0 |
| 20260510135552 | 55 | 212 | 1.7 | 1.7 | 0.00 | 0.00 | 0.00 | 92 | 1013.0 |
| 20260510135052 | 55 | 252 | 1.7 | 1.7 | 0.00 | 0.00 | 0.00 | 92 | 1013.0 |
| 20260510134552 | 55 | 280 | 0.9 | 1.7 | 0.00 | 0.00 | 0.00 | 92 | 1013.0 |
| 20260510134052 | 55 | 309 | 0.0 | 0.9 | 0.00 | 0.00 | 0.00 | 92 | 1013.0 |
| 20260510133552 | 55 | 228 | 1.7 | 1.7 | 0.00 | 0.00 | 0.00 | 93 | 1014.0 |
| 20260510133053 | 55 | 196 | 0.9 | 1.7 | 0.00 | 0.00 | 0.00 | 93 | 1014.0 |
| 20260510132553 | 55 | 241 | 0.9 | 0.9 | 0.00 | 0.00 | 0.00 | 93 | 1014.0 |
| 20260510132052 | 55 | 175 | 0.0 | 0.9 | 0.00 | 0.00 | 0.00 | 93 | 1014.0 |
| 20260510131552 | 55 | 228 | 0.9 | 0.9 | 0.00 | 0.00 | 0.00 | 94 | 1014.0 |
| 20260510131052 | 54 | 207 | 1.7 | 1.7 | 0.00 | 0.00 | 0.00 | 95 | 1014.0 |
| 20260510130553 | 54 | 227 | 0.9 | 0.9 | 0.00 | 0.00 | 0.00 | 95 | 1014.0 |
| 20260510130052 | 54 | 229 | 0.9 | 1.7 | 0.00 | 0.00 | 0.00 | 96 | 1014.0 |
| 20260510125553 | 53 | 0 | 0.0 | 0.0 | 0.00 | 0.00 | 0.00 | 97 | 1013.0 |
| 20260510125053 | 53 | 216 | 1.7 | 1.7 | 0.00 | 0.00 | 0.00 | 97 | 1013.0 |
| 20260510124105 | 52 | 166 | 0.9 | 0.9 | 0.00 | 0.00 | 0.00 | 97 | 1013.0 |
| 20260510123552 | 52 | 164 | 0.9 | 0.9 | 0.00 | 0.00 | 0.00 | 97 | 1013.0 |
| 20260510123052 | 52 | 0 | 0.0 | 0.0 | 0.00 | 0.00 | 0.00 | 97 | 1013.0 |
| 20260510122553 | 52 | 0 | 0.9 | 0.9 | 0.00 | 0.00 | 0.00 | 97 | 1013.0 |
| 20260510122052 | 51 | 0 | 0.0 | 0.0 | 0.00 | 0.00 | 0.00 | 97 | 1013.0 |
| 20260510121552 | 51 | 230 | 0.9 | 0.9 | 0.00 | 0.00 | 0.00 | 97 | 1013.0 |
| 20260510121052 | 51 | 248 | 0.9 | 0.9 | 0.00 | 0.00 | 0.00 | 97 | 1013.0 |
| 20260510120553 | 51 | 300 | 0.9 | 0.9 | 0.00 | 0.00 | 0.00 | 97 | 1013.0 |
| 20260510120052 | 51 | 0 | 0.0 | 0.0 | 0.00 | 0.00 | 0.00 | 97 | 1013.0 |
| 20260510115553 | 51 | 165 | 0.9 | 1.7 | 0.00 | 0.00 | 0.00 | 97 | 1013.0 |
| 20260510115052 | 51 | 0 | 0.0 | 0.0 | 0.00 | 0.00 | 0.00 | 97 | 1013.0 |
| 20260510114103 | 51 | 226 | 0.9 | 0.9 | 0.00 | 0.00 | 0.00 | 97 | 1013.0 |
| 20260510113553 | 51 | 219 | 0.9 | 0.9 | 0.00 | 0.00 | 0.00 | 97 | 1013.0 |
| 20260510113053 | 51 | 211 | 0.0 | 0.9 | 0.00 | 0.00 | 0.00 | 97 | 1013.0 |
| 20260510112552 | 51 | 0 | 0.0 | 0.0 | 0.00 | 0.00 | 0.00 | 97 | 1013.0 |
| 20260510112053 | 51 | 244 | 0.9 | 0.9 | 0.00 | 0.00 | 0.00 | 97 | 1013.0 |
| 20260510111553 | 50 | 227 | 0.9 | 1.7 | 0.00 | 0.00 | 0.00 | 97 | 1013.0 |
| 20260510111053 | 50 | 0 | 0.0 | 0.0 | 0.00 | 0.00 | 0.00 | 97 | 1013.0 |
| 20260510110553 | 50 | 197 | 0.0 | 0.0 | 0.00 | 0.00 | 0.00 | 97 | 1012.0 |
| 20260510110053 | 50 | 199 | 0.0 | 0.0 | 0.00 | 0.00 | 0.00 | 97 | 1012.0 |
| 20260510105553 | 50 | 0 | 0.0 | 0.0 | 0.00 | 0.00 | 0.00 | 97 | 1012.0 |
| 20260510105053 | 50 | 0 | 0.0 | 0.0 | 0.00 | 0.00 | 0.00 | 97 | 1012.0 |
| 20260510104552 | 50 | 0 | 0.0 | 0.0 | 0.00 | 0.00 | 0.00 | 97 | 1012.0 |
| 20260510104052 | 50 | 0 | 0.0 | 0.0 | 0.00 | 0.00 | 0.00 | 97 | 1012.0 |
| 20260510103552 | 50 | 0 | 0.0 | 0.0 | 0.00 | 0.00 | 0.00 | 97 | 1012.0 |
| 20260510103052 | 50 | 230 | 0.9 | 0.9 | 0.00 | 0.00 | 0.00 | 97 | 1012.0 |
| 20260510102552 | 50 | 235 | 0.9 | 0.9 | 0.00 | 0.00 | 0.00 | 97 | 1012.0 |
| 20260510102052 | 49 | 0 | 0.0 | 0.0 | 0.00 | 0.00 | 0.00 | 97 | 1012.0 |
| 20260510101552 | 49 | 196 | 0.0 | 0.9 | 0.00 | 0.00 | 0.00 | 97 | 1012.0 |
| 20260510101052 | 49 | 178 | 0.0 | 0.9 | 0.00 | 0.00 | 0.00 | 97 | 1012.0 |
| 20260510100553 | 49 | 255 | 0.0 | 0.0 | 0.00 | 0.00 | 0.00 | 97 | 1012.0 |
| 20260510100052 | 49 | 187 | 0.0 | 0.0 | 0.00 | 0.00 | 0.00 | 97 | 1012.0 |
| 20260510095552 | 49 | 249 | 0.9 | 0.9 | 0.00 | 0.00 | 0.00 | 97 | 1012.0 |
| 20260510095052 | 49 | 280 | 0.0 | 0.9 | 0.00 | 0.00 | 0.00 | 97 | 1012.0 |
| 20260510094553 | 49 | 133 | 0.9 | 0.9 | 0.00 | 0.00 | 0.00 | 97 | 1012.0 |
| 20260510094055 | 49 | 0 | 0.0 | 0.0 | 0.00 | 0.00 | 0.00 | 97 | 1012.0 |
| 20260510093554 | 49 | 184 | 0.0 | 0.0 | 0.00 | 0.00 | 0.00 | 97 | 1012.0 |
| 20260510093052 | 49 | 260 | 0.0 | 0.9 | 0.00 | 0.00 | 0.00 | 97 | 1012.0 |
| 20260510092552 | 49 | 253 | 0.0 | 0.9 | 0.00 | 0.00 | 0.00 | 97 | 1012.0 |
| 20260510092052 | 50 | 211 | 0.0 | 0.9 | 0.00 | 0.00 | 0.00 | 97 | 1012.0 |
| 20260510091554 | 50 | 0 | 0.0 | 0.0 | 0.00 | 0.00 | 0.00 | 97 | 1012.0 |
| 20260510091052 | 50 | 248 | 0.9 | 0.9 | 0.00 | 0.00 | 0.00 | 97 | 1012.0 |
| 20260510090552 | 50 | 187 | 0.0 | 0.9 | 0.00 | 0.00 | 0.00 | 97 | 1012.0 |
| 20260510090052 | 50 | 172 | 0.0 | 0.0 | 0.00 | 0.00 | 0.00 | 97 | 1012.0 |
| 20260510085554 | 50 | 0 | 0.0 | 0.0 | 0.00 | 0.00 | 0.00 | 97 | 1012.0 |
| 20260510085053 | 50 | 191 | 0.0 | 0.0 | 0.00 | 0.00 | 0.00 | 97 | 1012.0 |
| 20260510084553 | 50 | 198 | 0.0 | 0.9 | 0.00 | 0.00 | 0.00 | 97 | 1013.0 |
| 20260510084052 | 50 | 209 | 1.7 | 1.7 | 0.00 | 0.00 | 0.00 | 97 | 1012.0 |
| 20260510083553 | 50 | 174 | 0.9 | 0.9 | 0.00 | 0.00 | 0.00 | 97 | 1012.0 |
| 20260510083053 | 50 | 0 | 0.0 | 0.0 | 0.00 | 0.00 | 0.00 | 97 | 1012.0 |
| 20260510082552 | 50 | 183 | 1.7 | 1.7 | 0.00 | 0.00 | 0.00 | 97 | 1012.0 |
| 20260510082052 | 50 | 168 | 0.0 | 0.0 | 0.00 | 0.00 | 0.00 | 97 | 1012.0 |
| 20260510081552 | 50 | 297 | 0.0 | 0.9 | 0.00 | 0.00 | 0.00 | 97 | 1012.0 |
| 20260510081053 | 50 | 173 | 1.7 | 1.7 | 0.00 | 0.00 | 0.00 | 96 | 1012.0 |
| 20260510080552 | 50 | 67 | 0.0 | 0.9 | 0.00 | 0.00 | 0.00 | 96 | 1012.0 |
| 20260510080054 | 50 | 0 | 0.0 | 0.0 | 0.00 | 0.00 | 0.00 | 96 | 1012.0 |
| 20260510075552 | 50 | 193 | 0.0 | 0.9 | 0.00 | 0.00 | 0.00 | 96 | 1012.0 |
| 20260510075052 | 50 | 176 | 0.0 | 0.0 | 0.00 | 0.00 | 0.00 | 96 | 1012.0 |
| 20260510074552 | 50 | 188 | 0.9 | 0.9 | 0.00 | 0.00 | 0.00 | 96 | 1012.0 |
| 20260510074052 | 50 | 122 | 0.9 | 1.7 | 0.00 | 0.00 | 0.00 | 96 | 1012.0 |
| 20260510073552 | 50 | 213 | 0.9 | 0.9 | 0.00 | 0.00 | 0.00 | 96 | 1011.0 |
| 20260510073052 | 50 | 0 | 0.0 | 0.0 | 0.00 | 0.00 | 0.00 | 96 | 1011.0 |
| 20260510072552 | 50 | 0 | 0.0 | 0.0 | 0.00 | 0.00 | 0.00 | 97 | 1011.0 |
| 20260510072052 | 50 | 0 | 0.0 | 0.0 | 0.00 | 0.00 | 0.00 | 96 | 1011.0 |
| 20260510071553 | 50 | 182 | 0.0 | 0.0 | 0.00 | 0.00 | 0.00 | 97 | 1011.0 |
| 20260510071053 | 50 | 227 | 0.9 | 0.9 | 0.00 | 0.00 | 0.00 | 96 | 1011.0 |
| 20260510070554 | 50 | 0 | 0.0 | 0.0 | 0.00 | 0.00 | 0.00 | 96 | 1011.0 |
| 20260510070052 | 50 | 243 | 0.9 | 0.9 | 0.00 | 0.00 | 0.00 | 96 | 1012.0 |
| 20260510065552 | 50 | 0 | 0.0 | 0.0 | 0.00 | 0.00 | 0.00 | 97 | 1011.0 |
| 20260510065052 | 50 | 231 | 0.0 | 0.9 | 0.00 | 0.00 | 0.00 | 96 | 1012.0 |
| 20260510064553 | 50 | 0 | 0.0 | 0.0 | 0.00 | 0.00 | 0.00 | 96 | 1012.0 |
| 20260510064052 | 50 | 0 | 0.0 | 0.0 | 0.00 | 0.00 | 0.00 | 97 | 1012.0 |
| 20260510063553 | 50 | 0 | 0.0 | 0.0 | 0.00 | 0.00 | 0.00 | 97 | 1012.0 |
| 20260510063052 | 50 | 0 | 0.0 | 0.0 | 0.00 | 0.00 | 0.00 | 97 | 1012.0 |
| 20260510062552 | 50 | 0 | 0.0 | 0.0 | 0.00 | 0.00 | 0.00 | 97 | 1012.0 |
| 20260510062052 | 50 | 0 | 0.0 | 0.0 | 0.00 | 0.00 | 0.00 | 97 | 1012.0 |
| 20260510061553 | 50 | 199 | 0.0 | 0.0 | 0.00 | 0.00 | 0.00 | 96 | 1012.0 |
| 20260510061052 | 50 | 0 | 0.0 | 0.0 | 0.00 | 0.00 | 0.00 | 96 | 1011.0 |
| 20260510060553 | 50 | 242 | 0.0 | 0.0 | 0.00 | 0.00 | 0.00 | 96 | 1011.0 |
| 20260510060054 | 49 | 263 | 0.0 | 0.9 | 0.00 | 0.00 | 0.00 | 96 | 1011.0 |
| 20260510055552 | 49 | 249 | 0.0 | 0.9 | 0.00 | 0.00 | 0.00 | 96 | 1011.0 |
| 20260510055052 | 49 | 0 | 0.0 | 0.0 | 0.00 | 0.00 | 0.00 | 96 | 1011.0 |
| 20260510054552 | 49 | 0 | 0.0 | 0.0 | 0.00 | 0.00 | 0.00 | 96 | 1011.0 |
| 20260510054053 | 49 | 184 | 0.0 | 0.9 | 0.00 | 0.00 | 0.00 | 96 | 1011.0 |
| 20260510053552 | 49 | 0 | 0.0 | 0.0 | 0.00 | 0.00 | 0.00 | 96 | 1011.0 |
| 20260510053054 | 49 | 0 | 0.0 | 0.0 | 0.00 | 0.00 | 0.00 | 96 | 1011.0 |
| 20260510052552 | 48 | 0 | 0.0 | 0.0 | 0.00 | 0.00 | 0.00 | 96 | 1012.0 |
| 20260510052052 | 48 | 248 | 0.9 | 0.9 | 0.00 | 0.00 | 0.00 | 96 | 1012.0 |
| 20260510051552 | 48 | 174 | 0.0 | 0.9 | 0.00 | 0.00 | 0.00 | 96 | 1012.0 |
| 20260510051053 | 48 | 267 | 0.0 | 0.9 | 0.00 | 0.00 | 0.00 | 96 | 1012.0 |
| 20260510050552 | 48 | 245 | 0.9 | 0.9 | 0.00 | 0.00 | 0.00 | 96 | 1012.0 |
| 20260510050052 | 47 | 258 | 0.0 | 0.9 | 0.00 | 0.00 | 0.00 | 96 | 1012.0 |
| 20260510045553 | 47 | 176 | 0.0 | 0.9 | 0.00 | 0.00 | 0.00 | 96 | 1012.0 |
| 20260510045053 | 47 | 253 | 0.0 | 0.0 | 0.00 | 0.00 | 0.00 | 96 | 1012.0 |
| 20260510044552 | 47 | 240 | 0.9 | 0.9 | 0.00 | 0.00 | 0.00 | 96 | 1012.0 |
| 20260510044052 | 47 | 248 | 0.9 | 0.9 | 0.00 | 0.00 | 0.00 | 96 | 1012.0 |
| 20260510043552 | 47 | 269 | 0.0 | 0.0 | 0.00 | 0.00 | 0.00 | 96 | 1012.0 |
| 20260510043053 | 47 | 270 | 0.0 | 0.9 | 0.00 | 0.00 | 0.00 | 96 | 1012.0 |
| 20260510042552 | 47 | 271 | 0.9 | 0.9 | 0.00 | 0.00 | 0.00 | 96 | 1012.0 |
| 20260510042053 | 47 | 0 | 0.0 | 0.0 | 0.00 | 0.00 | 0.00 | 96 | 1012.0 |
| 20260510041553 | 47 | 185 | 0.0 | 0.9 | 0.00 | 0.00 | 0.00 | 96 | 1012.0 |
| 20260510041053 | 47 | 237 | 0.0 | 0.9 | 0.00 | 0.00 | 0.00 | 96 | 1012.0 |
| 20260510040553 | 47 | 0 | 0.0 | 0.0 | 0.00 | 0.00 | 0.00 | 96 | 1012.0 |
| 20260510040052 | 47 | 262 | 0.0 | 0.9 | 0.00 | 0.00 | 0.17 | 96 | 1012.0 |
| 20260510035553 | 47 | 267 | 0.9 | 0.9 | 0.00 | 0.00 | 0.17 | 96 | 1012.0 |
| 20260510035052 | 47 | 0 | 0.0 | 0.0 | 0.00 | 0.00 | 0.17 | 96 | 1012.0 |
| 20260510034552 | 47 | 251 | 0.9 | 0.9 | 0.00 | 0.00 | 0.17 | 96 | 1012.0 |
| 20260510034052 | 47 | 262 | 0.0 | 0.0 | 0.00 | 0.00 | 0.17 | 96 | 1011.0 |
| 20260510033553 | 47 | 263 | 0.0 | 0.0 | 0.00 | 0.00 | 0.17 | 96 | 1011.0 |
| 20260510033052 | 47 | 264 | 0.0 | 0.9 | 0.00 | 0.00 | 0.17 | 95 | 1011.0 |
| 20260510032552 | 47 | 253 | 0.9 | 0.9 | 0.00 | 0.00 | 0.17 | 95 | 1011.0 |
| 20260510032052 | 47 | 259 | 0.0 | 0.0 | 0.00 | 0.00 | 0.17 | 95 | 1011.0 |
| 20260510031553 | 48 | 276 | 0.0 | 0.9 | 0.00 | 0.00 | 0.17 | 95 | 1011.0 |
| 20260510031053 | 48 | 270 | 0.0 | 0.0 | 0.00 | 0.00 | 0.17 | 95 | 1011.0 |
| 20260510030554 | 48 | 262 | 0.0 | 0.9 | 0.00 | 0.00 | 0.17 | 95 | 1011.0 |
| 20260510030054 | 48 | 256 | 0.0 | 0.9 | 0.00 | 0.00 | 0.17 | 95 | 1011.0 |
| 20260510025553 | 48 | 206 | 0.0 | 0.0 | 0.00 | 0.00 | 0.17 | 95 | 1011.0 |
| 20260510025052 | 48 | 268 | 0.0 | 0.9 | 0.00 | 0.00 | 0.17 | 95 | 1011.0 |
| 20260510024553 | 48 | 0 | 0.0 | 0.0 | 0.00 | 0.00 | 0.17 | 95 | 1011.0 |
| 20260510024053 | 48 | 260 | 0.9 | 0.9 | 0.00 | 0.00 | 0.17 | 95 | 1011.0 |
| 20260510023552 | 48 | 272 | 0.0 | 0.0 | 0.00 | 0.00 | 0.17 | 95 | 1011.0 |
| 20260510023052 | 48 | 258 | 0.0 | 0.0 | 0.00 | 0.00 | 0.17 | 95 | 1011.0 |
| 20260510022552 | 48 | 259 | 0.0 | 0.9 | 0.00 | 0.00 | 0.17 | 95 | 1011.0 |
| 20260510022052 | 49 | 265 | 0.9 | 1.7 | 0.00 | 0.00 | 0.17 | 95 | 1011.0 |
| 20260510021553 | 49 | 185 | 0.9 | 1.7 | 0.00 | 0.00 | 0.17 | 95 | 1011.0 |
| 20260510021052 | 49 | 236 | 0.9 | 1.7 | 0.00 | 0.00 | 0.17 | 94 | 1011.0 |
| 20260510020554 | 49 | 0 | 0.0 | 0.0 | 0.00 | 0.00 | 0.17 | 94 | 1011.0 |
| 20260510020054 | 49 | 272 | 0.9 | 0.9 | 0.00 | 0.00 | 0.17 | 94 | 1011.0 |
| 20260510015552 | 49 | 266 | 0.9 | 0.9 | 0.00 | 0.00 | 0.17 | 94 | 1011.0 |
| 20260510015052 | 49 | 254 | 0.0 | 0.0 | 0.00 | 0.00 | 0.17 | 94 | 1011.0 |
| 20260510014552 | 49 | 258 | 0.0 | 0.9 | 0.00 | 0.00 | 0.17 | 94 | 1011.0 |
| 20260510014052 | 49 | 0 | 0.0 | 0.0 | 0.00 | 0.00 | 0.17 | 94 | 1011.0 |
| 20260510013552 | 50 | 0 | 0.0 | 0.0 | 0.00 | 0.00 | 0.17 | 94 | 1011.0 |
| 20260510013052 | 50 | 162 | 0.0 | 0.9 | 0.00 | 0.00 | 0.17 | 94 | 1011.0 |
| 20260510012552 | 50 | 223 | 0.0 | 0.0 | 0.00 | 0.00 | 0.17 | 94 | 1011.0 |
| 20260510012053 | 50 | 243 | 0.0 | 0.9 | 0.00 | 0.00 | 0.17 | 94 | 1011.0 |
| 20260510011553 | 50 | 264 | 0.0 | 0.0 | 0.00 | 0.00 | 0.17 | 94 | 1011.0 |
| 20260510011053 | 50 | 246 | 0.9 | 0.9 | 0.00 | 0.00 | 0.17 | 94 | 1011.0 |
| 20260510010553 | 51 | 217 | 0.0 | 0.9 | 0.00 | 0.00 | 0.17 | 94 | 1011.0 |
| 20260510010053 | 51 | 269 | 0.0 | 0.9 | 0.00 | 0.00 | 0.17 | 94 | 1011.0 |
| 20260510005552 | 51 | 251 | 0.0 | 0.9 | 0.00 | 0.00 | 0.17 | 93 | 1011.0 |
| 20260510005052 | 51 | 287 | 0.0 | 0.9 | 0.00 | 0.00 | 0.17 | 93 | 1011.0 |
| 20260510004552 | 51 | 0 | 0.0 | 0.0 | 0.00 | 0.00 | 0.17 | 93 | 1011.0 |
| 20260510004052 | 52 | 0 | 0.0 | 0.0 | 0.00 | 0.00 | 0.17 | 93 | 1011.0 |
| 20260510003552 | 52 | 256 | 0.0 | 0.0 | 0.00 | 0.00 | 0.17 | 93 | 1011.0 |
| 20260510003052 | 52 | 271 | 0.0 | 0.9 | 0.00 | 0.00 | 0.17 | 93 | 1011.0 |
| 20260510002552 | 52 | 0 | 0.0 | 0.0 | 0.00 | 0.00 | 0.17 | 93 | 1011.0 |
| 20260510002052 | 52 | 0 | 0.0 | 0.0 | 0.00 | 0.00 | 0.17 | 93 | 1011.0 |
| 20260510001552 | 53 | 0 | 0.0 | 0.0 | 0.00 | 0.00 | 0.17 | 93 | 1011.0 |
| 20260510001052 | 53 | 0 | 0.0 | 0.0 | 0.00 | 0.00 | 0.17 | 92 | 1011.0 |
| 20260510000552 | 53 | 0 | 0.0 | 0.0 | 0.00 | 0.00 | 0.17 | 92 | 1011.0 |
| 20260510000057 | 53 | 215 | 0.0 | 0.9 | 0.00 | 0.00 | 0.17 | 92 | 1011.0 |
| 20260509235552 | 53 | 0 | 0.0 | 0.0 | 0.00 | 0.00 | 0.17 | 92 | 1011.0 |
| 20260509235053 | 53 | 0 | 0.0 | 0.0 | 0.00 | 0.00 | 0.17 | 92 | 1011.0 |
| 20260509234555 | 54 | 0 | 0.0 | 0.0 | 0.00 | 0.00 | 0.17 | 92 | 1011.0 |
| 20260509234053 | 54 | 0 | 0.0 | 0.0 | 0.00 | 0.00 | 0.17 | 92 | 1011.0 |
| 20260509233552 | 54 | 0 | 0.0 | 0.0 | 0.00 | 0.00 | 0.17 | 92 | 1011.0 |
| 20260509233052 | 54 | 0 | 0.0 | 0.0 | 0.00 | 0.00 | 0.17 | 92 | 1011.0 |
| 20260509232552 | 54 | 0 | 0.0 | 0.0 | 0.00 | 0.00 | 0.17 | 91 | 1011.0 |
| 20260509232052 | 55 | 0 | 0.0 | 0.0 | 0.00 | 0.00 | 0.17 | 91 | 1010.0 |
| 20260509231554 | 55 | 0 | 0.0 | 0.0 | 0.00 | 0.00 | 0.17 | 92 | 1010.0 |
| 20260509231053 | 55 | 0 | 0.0 | 0.0 | 0.00 | 0.00 | 0.17 | 92 | 1010.0 |
| 20260509230553 | 55 | 0 | 0.0 | 0.0 | 0.00 | 0.00 | 0.17 | 92 | 1010.0 |
| 20260509230053 | 55 | 208 | 0.0 | 0.9 | 0.00 | 0.00 | 0.17 | 92 | 1011.0 |
| 20260509225552 | 55 | 0 | 0.0 | 0.0 | 0.00 | 0.00 | 0.17 | 92 | 1011.0 |
| 20260509225054 | 55 | 270 | 0.0 | 0.9 | 0.00 | 0.00 | 0.17 | 92 | 1011.0 |
| 20260509224552 | 55 | 0 | 0.0 | 0.0 | 0.00 | 0.00 | 0.17 | 91 | 1011.0 |
| 20260509224052 | 55 | 148 | 0.0 | 0.9 | 0.00 | 0.00 | 0.17 | 92 | 1011.0 |
| 20260509223552 | 55 | 0 | 0.0 | 0.0 | 0.00 | 0.00 | 0.17 | 92 | 1011.0 |
| 20260509223052 | 55 | 132 | 0.0 | 0.0 | 0.00 | 0.00 | 0.17 | 92 | 1011.0 |
| 20260509222552 | 55 | 298 | 0.9 | 0.9 | 0.00 | 0.00 | 0.17 | 93 | 1011.0 |
| 20260509222053 | 55 | 113 | 0.9 | 1.7 | 0.00 | 0.00 | 0.17 | 93 | 1011.0 |
| 20260509221553 | 55 | 0 | 0.0 | 0.0 | 0.00 | 0.00 | 0.17 | 93 | 1011.0 |
| 20260509221052 | 55 | 0 | 0.0 | 0.0 | 0.00 | 0.00 | 0.17 | 93 | 1011.0 |
| 20260509220553 | 54 | 231 | 0.0 | 0.9 | 0.00 | 0.00 | 0.17 | 93 | 1011.0 |
| 20260509220052 | 54 | 108 | 0.9 | 1.7 | 0.00 | 0.00 | 0.17 | 93 | 1011.0 |
| 20260509215552 | 54 | 303 | 0.0 | 0.9 | 0.00 | 0.00 | 0.17 | 93 | 1011.0 |
| 20260509215052 | 54 | 102 | 0.0 | 0.9 | 0.00 | 0.00 | 0.17 | 93 | 1011.0 |
| 20260509214552 | 54 | 129 | 0.0 | 0.0 | 0.00 | 0.00 | 0.17 | 93 | 1011.0 |
| 20260509214052 | 54 | 162 | 0.9 | 0.9 | 0.00 | 0.00 | 0.17 | 93 | 1011.0 |
| 20260509213552 | 54 | 123 | 0.9 | 1.7 | 0.02 | 0.00 | 0.17 | 93 | 1011.0 |
| 20260509213052 | 54 | 118 | 0.0 | 0.0 | 0.00 | 0.00 | 0.17 | 92 | 1011.0 |
| 20260509212552 | 54 | 229 | 0.0 | 0.0 | 0.04 | 0.00 | 0.16 | 92 | 1011.0 |
| 20260509212053 | 54 | 164 | 0.9 | 0.9 | 0.01 | 0.00 | 0.16 | 92 | 1011.0 |
| 20260509211553 | 54 | 141 | 0.0 | 0.0 | 0.01 | 0.00 | 0.16 | 91 | 1011.0 |
| 20260509211052 | 55 | 174 | 0.9 | 0.9 | 0.03 | 0.00 | 0.15 | 91 | 1011.0 |
| 20260509210553 | 55 | 158 | 0.0 | 0.0 | 0.16 | 0.00 | 0.15 | 91 | 1011.0 |
| 20260509210053 | 55 | 0 | 0.0 | 0.0 | 0.01 | 0.00 | 0.14 | 91 | 1011.0 |
| 20260509205555 | 55 | 200 | 0.9 | 0.9 | 0.11 | 0.00 | 0.13 | 90 | 1011.0 |
| 20260509205052 | 55 | 191 | 0.9 | 0.9 | 0.05 | 0.00 | 0.12 | 90 | 1011.0 |
| 20260509204553 | 55 | 0 | 0.0 | 0.0 | 0.07 | 0.00 | 0.12 | 90 | 1011.0 |
| 20260509204053 | 55 | 249 | 0.9 | 1.7 | 0.14 | 0.00 | 0.10 | 90 | 1011.0 |
| 20260509203555 | 55 | 249 | 0.0 | 0.0 | 0.00 | 0.00 | 0.10 | 89 | 1011.0 |
| 20260509203053 | 55 | 171 | 0.9 | 0.9 | 0.00 | 0.00 | 0.09 | 89 | 1011.0 |
| 20260509202552 | 55 | 0 | 0.0 | 0.0 | 0.07 | 0.00 | 0.09 | 89 | 1011.0 |
| 20260509202053 | 55 | 205 | 0.9 | 0.9 | 0.16 | 0.00 | 0.08 | 88 | 1011.0 |
| 20260509201552 | 55 | 292 | 0.9 | 0.9 | 0.02 | 0.00 | 0.08 | 89 | 1011.0 |
| 20260509201052 | 55 | 258 | 0.9 | 1.7 | 0.06 | 0.00 | 0.07 | 89 | 1011.0 |
| 20260509200552 | 55 | 258 | 0.9 | 0.9 | 0.00 | 0.00 | 0.07 | 90 | 1011.0 |
| 20260509200052 | 55 | 259 | 0.0 | 0.0 | 0.03 | 0.00 | 0.07 | 90 | 1011.0 |
| 20260509195553 | 55 | 298 | 0.0 | 0.0 | 0.01 | 0.00 | 0.07 | 90 | 1011.0 |
| 20260509195052 | 55 | 0 | 0.0 | 0.0 | 0.00 | 0.00 | 0.07 | 90 | 1011.0 |
| 20260509194553 | 55 | 0 | 0.0 | 0.0 | 0.02 | 0.00 | 0.07 | 90 | 1011.0 |
| 20260509194053 | 55 | 169 | 0.9 | 1.7 | 0.06 | 0.00 | 0.06 | 90 | 1011.0 |
| 20260509193554 | 55 | 162 | 0.0 | 0.9 | 0.00 | 0.00 | 0.06 | 90 | 1012.0 |
| 20260509193052 | 55 | 214 | 0.9 | 1.7 | 0.32 | 0.00 | 0.06 | 89 | 1012.0 |
| 20260509192553 | 55 | 270 | 0.9 | 1.7 | 0.04 | 0.00 | 0.05 | 88 | 1011.0 |
| 20260509192052 | 56 | 159 | 0.0 | 0.9 | 0.08 | 0.00 | 0.04 | 88 | 1011.0 |
| 20260509191553 | 56 | 193 | 0.0 | 0.9 | 0.03 | 0.00 | 0.03 | 87 | 1011.0 |
| 20260509191053 | 56 | 74 | 0.0 | 0.9 | 0.12 | 0.00 | 0.03 | 86 | 1011.0 |
| 20260509190122 | 57 | 235 | 0.0 | 0.9 | 0.00 | 0.00 | 0.02 | 85 | 1011.0 |
| 20260509185553 | 57 | 273 | 0.0 | 1.7 | 0.00 | 0.00 | 0.02 | 84 | 1011.0 |
| 20260509185052 | 57 | 63 | 0.9 | 1.7 | 0.00 | 0.00 | 0.02 | 83 | 1011.0 |
| 20260509184552 | 57 | 200 | 0.0 | 0.9 | 0.00 | 0.00 | 0.02 | 84 | 1012.0 |
| 20260509184052 | 57 | 237 | 0.9 | 1.7 | 0.00 | 0.00 | 0.02 | 84 | 1012.0 |
| 20260509183553 | 57 | 0 | 0.0 | 0.0 | 0.00 | 0.00 | 0.02 | 84 | 1011.0 |
| 20260509183052 | 57 | 0 | 0.0 | 0.0 | 0.00 | 0.00 | 0.02 | 84 | 1011.0 |
| 20260509182553 | 57 | 0 | 0.0 | 0.0 | 0.00 | 0.00 | 0.02 | 85 | 1011.0 |
| 20260509182052 | 57 | 236 | 0.0 | 0.9 | 0.00 | 0.00 | 0.02 | 83 | 1011.0 |
| 20260509181553 | 57 | 261 | 0.0 | 0.9 | 0.00 | 0.00 | 0.02 | 83 | 1011.0 |
| 20260509181055 | 58 | 0 | 0.0 | 0.0 | 0.00 | 0.00 | 0.02 | 82 | 1011.0 |
| 20260509180552 | 58 | 180 | 0.0 | 0.0 | 0.00 | 0.00 | 0.01 | 81 | 1012.0 |
| 20260509180053 | 59 | 237 | 1.7 | 3.5 | 0.05 | 0.00 | 0.01 | 79 | 1012.0 |
| 20260509175552 | 60 | 318 | 0.9 | 1.7 | 0.06 | 0.00 | 0.01 | 80 | 1012.0 |
| 20260509175053 | 60 | 0 | 0.0 | 0.0 | 0.00 | 0.00 | 0.00 | 79 | 1012.0 |
| 20260509174553 | 60 | 28 | 0.9 | 1.7 | 0.01 | 0.00 | 0.00 | 78 | 1012.0 |
| 20260509174053 | 61 | 257 | 0.9 | 1.7 | 0.00 | 0.00 | 0.00 | 75 | 1012.0 |
| 20260509173553 | 61 | 199 | 0.0 | 0.9 | 0.00 | 0.00 | 0.00 | 77 | 1012.0 |
| 20260509173052 | 62 | 189 | 1.7 | 1.7 | 0.00 | 0.00 | 0.00 | 78 | 1012.0 |
| 20260509172553 | 62 | 0 | 0.0 | 0.0 | 0.00 | 0.00 | 0.00 | 76 | 1012.0 |
| 20260509172053 | 62 | 176 | 1.7 | 2.6 | 0.00 | 0.00 | 0.00 | 74 | 1012.0 |
| 20260509171552 | 63 | 257 | 0.9 | 1.7 | 0.00 | 0.00 | 0.00 | 72 | 1012.0 |
| 20260509171053 | 63 | 281 | 1.7 | 1.7 | 0.00 | 0.00 | 0.00 | 70 | 1012.0 |
| 20260509170553 | 63 | 215 | 0.9 | 1.7 | 0.00 | 0.00 | 0.00 | 70 | 1011.0 |
| 20260509170052 | 63 | 332 | 0.0 | 0.0 | 0.00 | 0.00 | 0.00 | 69 | 1011.0 |
| 20260509165553 | 63 | 176 | 0.0 | 0.0 | 0.00 | 0.00 | 0.00 | 70 | 1011.0 |
| 20260509165052 | 62 | 31 | 0.0 | 0.0 | 0.00 | 0.00 | 0.00 | 72 | 1011.0 |
| 20260509164553 | 62 | 298 | 0.9 | 1.7 | 0.00 | 0.00 | 0.00 | 70 | 1011.0 |
| 20260509164053 | 62 | 239 | 1.7 | 1.7 | 0.00 | 0.00 | 0.00 | 69 | 1011.0 |
| 20260509163552 | 62 | 95 | 0.9 | 1.7 | 0.00 | 0.00 | 0.00 | 70 | 1011.0 |
| 20260509163052 | 62 | 0 | 0.0 | 0.0 | 0.00 | 0.00 | 0.00 | 69 | 1011.0 |
| 20260509162553 | 62 | 193 | 0.9 | 1.7 | 0.00 | 0.00 | 0.00 | 68 | 1011.0 |
| 20260509162052 | 62 | 220 | 0.9 | 0.9 | 0.00 | 0.00 | 0.00 | 70 | 1012.0 |
| 20260509161553 | 62 | 175 | 0.9 | 1.7 | 0.00 | 0.00 | 0.00 | 70 | 1012.0 |
| 20260509161052 | 62 | 266 | 2.6 | 4.3 | 0.00 | 0.00 | 0.00 | 70 | 1012.0 |
| 20260509160553 | 62 | 0 | 0.0 | 0.0 | 0.00 | 0.00 | 0.00 | 71 | 1012.0 |
| 20260509160053 | 62 | 208 | 1.7 | 3.5 | 0.00 | 0.00 | 0.00 | 71 | 1012.0 |
| 20260509155552 | 62 | 269 | 0.9 | 1.7 | 0.00 | 0.00 | 0.00 | 71 | 1012.0 |
| 20260509155052 | 62 | 175 | 0.9 | 1.7 | 0.00 | 0.00 | 0.00 | 70 | 1012.0 |
| 20260509154553 | 61 | 214 | 1.7 | 1.7 | 0.00 | 0.00 | 0.00 | 71 | 1012.0 |
| 20260509154052 | 61 | 207 | 1.7 | 2.6 | 0.00 | 0.00 | 0.00 | 72 | 1012.0 |
| 20260509153552 | 61 | 175 | 1.7 | 2.6 | 0.00 | 0.00 | 0.00 | 71 | 1012.0 |
| 20260509153052 | 61 | 249 | 0.9 | 1.7 | 0.00 | 0.00 | 0.00 | 71 | 1012.0 |
| 20260509152553 | 61 | 249 | 0.9 | 0.9 | 0.00 | 0.00 | 0.00 | 71 | 1012.0 |
| 20260509152052 | 61 | 210 | 1.7 | 2.6 | 0.00 | 0.00 | 0.00 | 72 | 1012.0 |
| 20260509151552 | 60 | 191 | 1.7 | 2.6 | 0.00 | 0.00 | 0.00 | 72 | 1012.0 |
| 20260509151053 | 60 | 191 | 0.9 | 1.7 | 0.00 | 0.00 | 0.00 | 73 | 1012.0 |
| 20260509150554 | 60 | 252 | 0.9 | 1.7 | 0.00 | 0.00 | 0.00 | 72 | 1012.0 |
| 20260509150052 | 60 | 200 | 1.7 | 1.7 | 0.00 | 0.00 | 0.00 | 73 | 1012.0 |
| 20260509145552 | 60 | 280 | 0.9 | 1.7 | 0.00 | 0.00 | 0.00 | 73 | 1012.0 |
| 20260509145053 | 60 | 326 | 1.7 | 2.6 | 0.00 | 0.00 | 0.00 | 72 | 1012.0 |
| 20260509144552 | 60 | 320 | 0.9 | 2.6 | 0.00 | 0.00 | 0.00 | 73 | 1012.0 |